AO-07 1 07530U 74089B 25093.54896523 -.00000038 00000-0 50337-4 0 9998 2 07530 101.9953 97.0955 0011891 249.5296 232.9858 12.53687860305424 UO-11 1 14781U 84021B 25093.61392713 .00003187 00000-0 34369-3 0 9994 2 14781 97.7481 61.3476 0007404 185.5361 174.5776 14.89077418191670 AO-27 1 22825U 93061C 25093.57309045 .00000272 00000-0 12118-3 0 9997 2 22825 98.7438 154.7741 0007510 314.3511 45.7055 14.30766466644137 FO-29 1 24278U 96046B 25093.47125467 .00000015 00000-0 49638-4 0 9993 2 24278 98.5824 356.1787 0350344 156.3051 205.4672 13.53242214413694 NOAA-15 1 25338U 98030A 25093.84772249 .00000377 00000-0 17262-3 0 9991 2 25338 98.5424 120.5653 0010152 188.1318 171.9700 14.26931291398885 GO-32 1 25397U 98043D 25093.53368349 .00000250 00000-0 12844-3 0 9999 2 25397 98.9654 71.2734 0002191 63.0444 297.0958 14.24287957388746 ISS 1 25544U 98067A 25093.84383553 .00013798 00000-0 25624-3 0 9998 2 25544 51.6367 315.2211 0004818 6.2247 353.8801 15.49208916503637 NO-44 1 26931U 01043C 25093.30345887 .00000425 00000-0 19010-3 0 9991 2 26931 67.0507 301.7804 0005582 269.1608 90.8854 14.31682318227476 SO-50 1 27607U 02058C 25093.59064515 .00004493 00000-0 58051-3 0 9993 2 27607 64.5553 47.2760 0048479 350.1584 9.8567 14.81322420199300 CO-55 1 27844U 03031E 25093.50526024 .00000788 00000-0 36269-3 0 9997 2 27844 98.6788 102.6390 0010174 29.1143 331.0601 14.23916892129097 CO-57 1 27848U 03031J 25093.00074757 .00000667 00000-0 31365-3 0 9995 2 27848 98.6818 102.1973 0010387 46.2280 313.9756 14.23262091128752 RS-22 1 27939U 03042A 25093.87061719 .00003076 00000-0 49696-3 0 9990 2 27939 98.3223 261.7399 0010949 216.6607 251.3165 14.72085477151013 NOAA-18 1 28654U 05018A 25093.80448922 .00000401 00000-0 23591-3 0 9993 2 28654 98.8439 174.0287 0013296 322.0695 37.9540 14.13564610 24314 CO-58 1 28895U 05043F 25093.37488997 .00005078 00000-0 84118-3 0 9993 2 28895 98.2389 236.9390 0015362 156.9167 203.2732 14.70637299 37295 CO-65 1 32785U 08021C 25093.14324093 .00012647 00000-0 93296-3 0 9993 2 32785 97.7780 63.8772 0011835 81.0163 279.2401 15.03367014918941 AAUSAT2 1 32788U 08021F 25093.87335706 .00249104 00000-0 25471-2 0 9998 2 32788 97.6044 88.5910 0007292 136.1019 224.0820 15.64198222922980 CO-66 1 32791U 08021J 25093.19207883 .00028753 00000-0 14799-2 0 9997 2 32791 97.7248 71.8522 0006418 62.9676 297.2210 15.16363703920279 RS-30 1 32953U 08025A 25093.84568551 .00000043 00000-0 23503-3 0 9991 2 32953 82.4977 268.6870 0019446 188.8691 171.2048 12.43161438765243 NOAA-19 1 33591U 09005A 25093.87082594 .00000370 00000-0 22101-3 0 9996 2 33591 99.0033 158.1855 0013784 188.0292 172.0662 14.13330059832683 SRMSAT 1 37841U 11058D 25093.51023321 .00000630 00000-0 19877-3 0 9998 2 37841 19.9708 200.4087 0011910 47.3699 42.4520 14.11402538695624 ZACUBE-1 1 39417U 13066B 25093.84581779 .00010233 00000-0 90601-3 0 9996 2 39417 97.7744 51.2799 0042605 275.4993 84.1369 14.95759885614938 Delfi-N3xt 1 39428U 13066N 25093.77787854 .00013569 00000-0 14181-2 0 9995 2 39428 97.8352 12.2347 0085297 219.4546 140.0439 14.87101976609328 GOMX-1 1 39430U 13066Q 25093.86964107 .00004409 00000-0 69018-3 0 9999 2 39430 97.6927 316.6081 0134419 46.3767 314.8496 14.67268041605624 LO-74 1 39440U 13066AA 25093.84102548 .00010663 00000-0 10930-2 0 9998 2 39440 97.8438 38.9195 0064528 41.6324 318.9779 14.89076514612706 AO-73 1 39444U 13066AE 25093.58304345 .00015678 00000-0 12129-2 0 9995 2 39444 97.7658 55.3511 0039414 252.1998 107.4923 15.00944558613530 DTUSAT-2 1 40030U 14033W 25093.85784825 .00016246 00000-0 10892-2 0 9995 2 40030 98.0503 62.5340 0007406 291.1945 68.8489 15.06928590586852 EO-80 1 40032U 14033Y 25093.48300011 .00014202 00000-0 95140-3 0 9997 2 40032 98.0388 61.8904 0007128 214.9039 145.1720 15.06994296586269 LILACSAT-2 1 40908U 15049K 25093.85759195 .00020832 00000-0 57842-3 0 9992 2 40908 97.5129 112.6622 0010937 50.2448 309.9757 15.36864617527976 IO-86 1 40931U 15052B 25038.81889873 .00001817 00000-0 15548-3 0 9993 2 40931 6.0001 108.1159 0012838 187.7041 172.2889 14.78568669506492 Horyu-4 1 41340U 16012D 25093.64246409 .00038318 00000-0 11560-2 0 9994 2 41340 30.9968 220.9474 0008866 84.6986 275.4670 15.33036323502496 Lapan A3 1 41603U 16040E 25093.83774916 .00007319 00000-0 26029-3 0 9991 2 41603 97.1402 101.0858 0012476 139.9225 220.2938 15.29191688487581 CAS-2T 1 41847U 16066G 25093.57873295 .00002466 00000-0 35857-3 0 9997 2 41847 98.4231 168.6180 0347277 21.3739 340.1557 14.43273760441357 CAS-4B 1 42759U 17034B 25093.83626493 .00073008 00000-0 10869-2 0 9996 2 42759 43.0106 357.0912 0018035 190.4986 169.5501 15.54025320432186 CAS-4A 1 42761U 17034D 25093.84791016 .00074048 00000-0 10729-2 0 9994 2 42761 43.0142 354.7420 0019493 195.3177 164.7096 15.54726654432209 TechnoSat 1 42829U 17042E 25093.73419040 .00007707 00000-0 60524-3 0 9997 2 42829 97.3923 265.6451 0014229 141.8864 218.3370 15.01086317420696 AO-91 1 43017U 17073E 25093.53484262 .00018199 00000-0 95204-3 0 9997 2 43017 97.5330 326.0247 0177698 35.1475 326.1321 15.03195117399137 S-Net D 1 43186U 18014G 25093.30116913 .00011423 00000-0 68914-3 0 9991 2 43186 97.5672 356.9161 0011225 95.1901 265.0610 15.10846674392216 S-Net B 1 43187U 18014H 25093.30573349 .00011464 00000-0 69181-3 0 9994 2 43187 97.5677 356.8888 0012036 91.2032 269.0577 15.10829770392214 S-Net A 1 43188U 18014J 25093.30178599 .00011420 00000-0 68881-3 0 9991 2 43188 97.5685 357.0266 0011861 91.8743 268.3845 15.10851419392212 S-Net C 1 43189U 18014K 25093.70537752 .00010049 00000-0 60669-3 0 9998 2 43189 97.5700 357.4283 0013499 84.4028 275.8741 15.10832789390829 Ten-Koh 1 43677U 18084G 25093.43820778 .00006536 00000-0 52879-3 0 9990 2 43677 98.0965 263.0185 0010397 136.9532 223.2505 15.00090450350179 PO-101 1 43678U 18084H 25093.86517013 .00005263 00000-0 45229-3 0 9990 2 43678 98.0992 267.4748 0008738 146.6825 213.4948 14.97859429350392 QO-100 1 43700U 18090A 25093.13517094 .00000134 00000-0 00000-0 0 9999 2 43700 0.0151 231.8909 0001457 173.0874 221.2146 1.00274262 23267 MinXSS-2 1 43758U 18099A 25093.57752719 .00028482 00000-0 12109-2 0 9995 2 43758 97.5078 159.4985 0012362 38.8390 321.3732 15.22925031346768 AO-95 1 43770U 18099N 25093.41277936 .00019804 00000-0 10442-2 0 9991 2 43770 97.4990 152.2877 0012542 89.3872 270.8797 15.15537549346372 RANGE-A 1 43773U 18099R 25093.68060245 .00010316 00000-0 66907-3 0 9993 2 43773 97.4570 144.0292 0012749 66.5797 293.6770 15.08207102346130 MOVE-II 1 43780U 18099Y 25093.72514979 .00142060 00000-0 22657-2 0 9999 2 43780 97.4716 165.4942 0000439 9.6371 350.4890 15.52716818347356 SNUSat 2 1 43782U 18099AA 25093.12672664 .00015464 00000-0 87268-3 0 9998 2 43782 97.4675 149.2918 0012655 34.5489 325.6562 15.13169693346297 SnugLite 1 43784U 18099AC 25093.12689662 .00018593 00000-0 97430-3 0 9994 2 43784 97.4490 148.7296 0004140 53.8237 306.3378 15.15829450346413 ITASat 1 1 43786U 18099AE 25093.59133042 .00011380 00000-0 66902-3 0 9990 2 43786 97.4641 149.4443 0016088 80.8741 279.4309 15.11727061346335 EAGLET 1 1 43790U 18099AJ 25093.09948753 .00009728 00000-0 63058-3 0 9995 2 43790 97.4840 149.1251 0013369 65.3611 294.9008 15.08238323345890 ESEO 1 43792U 18099AL 25093.53619239 .00003962 00000-0 30416-3 0 9996 2 43792 97.4579 143.6880 0012583 40.4671 319.7488 15.02261031345754 CSIM 1 43793U 18099AM 25093.82894769 .00126130 00000-0 19791-2 0 9997 2 43793 97.4904 167.7295 0003576 334.9117 25.1961 15.53225327347213 JO-97 1 43803U 18099AX 25093.43360093 .00024101 00000-0 11601-2 0 9991 2 43803 97.4738 153.1752 0007706 31.1798 328.9892 15.18737097346575 Suomi 100 1 43804U 18099AY 25093.41246055 .00020777 00000-0 10613-2 0 9998 2 43804 97.4801 152.6257 0012878 29.2026 330.9924 15.16643655346516 ISAT 1 43879U 18111D 25093.71661914 .00036038 00000-0 13782-2 0 9990 2 43879 97.5988 6.7765 0012165 77.3151 282.9446 15.26432499341467 UWE-4 1 43880U 18111E 25093.73274001 .00028476 00000-0 12007-2 0 9997 2 43880 97.5929 5.7044 0015319 85.8147 274.4840 15.23167599341441 Sparrow 1 43881U 18111F 25093.74841473 .00036241 00000-0 13437-2 0 9999 2 43881 97.6122 9.4434 0010179 107.3309 252.9044 15.27478476341575 Prox-1 1 44339U 19036A 25093.42573474 .00024323 00000-0 32497-2 0 9998 2 44339 23.9958 142.3512 0007163 34.0424 326.0531 14.78049041308068 SONATE 1 44400U 19038Q 25093.52888502 .00136689 00000-0 11604-2 0 9997 2 44400 97.7031 112.7220 0010663 131.7174 228.5001 15.69147739318985 Taurus 1 1 44530U 19059C 25093.80700862 .00015341 00000-0 28981-2 0 9994 2 44530 98.5978 230.1195 0010236 234.6540 125.3706 14.64480901294164 Duchifat 3 1 44854U 19089C 25093.28328491 .00075429 00000-0 18506-2 0 9997 2 44854 36.9467 61.0706 0004012 307.5664 52.4726 15.39574615292612 TO-108 1 44881U 19093C 25093.87561067 .00002392 00000-0 28342-3 0 9994 2 44881 97.7950 170.9193 0015333 91.2511 269.0461 14.85392459286170 FloripaSat 1 1 44885U 19093G 25093.81924705 .00011121 00000-0 95940-3 0 9992 2 44885 97.8149 181.3336 0011252 72.3424 287.9026 14.97401975286756 RS-44 1 44909U 19096E 25093.55414119 .00000023 00000-0 40320-4 0 9998 2 44909 82.5165 271.8177 0218472 92.3238 270.2894 12.79739821246114 UPMSat 2 1 46276U 20061E 25093.57776890 .00075381 00000-0 95583-3 0 9999 2 46276 97.2507 166.1460 0001823 149.5849 210.5513 15.59204979254992 SALSAT 1 46495U 20068K 25093.49833348 .00015459 00000-0 69093-3 0 9999 2 46495 97.8565 68.5110 0013213 43.7156 316.5123 15.21350673248320 CubeSX-Sirius-HSE 1 47951U 21022V 25093.87286098 .00169689 00000-0 16723-2 0 9990 2 47951 97.4240 3.2304 0009345 145.9940 214.1920 15.65362576223315 CubeSX-HSE 1 47952U 21022W 25093.83567359 .00169807 00000-0 16371-2 0 9990 2 47952 97.4240 3.4135 0009543 141.8186 218.3752 15.65912882223328 GRBAlpha 1 47959U 21022AD 25093.86863455 .00162446 00000-0 15889-2 0 9991 2 47959 97.4234 3.5824 0009246 145.5698 214.6163 15.65576225222155 Orbicraft-Zorkiy 1 47960U 21022AE 25093.41959198 .00871987 34101-3 21705-2 0 9997 2 47960 97.4139 7.4186 0010023 142.4405 217.7573 15.95794455223028 TUBIN 1 48900U 21059X 25093.83480931 .00062895 00000-0 98750-3 0 9995 2 48900 97.6718 257.9917 0003919 138.3782 221.7769 15.53449055209652 LEDSAT 1 49069U 21073D 25093.75246973 .00077912 00000-0 13242-2 0 9993 2 49069 97.3934 172.9526 0010328 316.5712 43.4725 15.51120231201049 CUTE 1 49263U 21088D 25092.44215528 .00025981 00000-0 57224-3 0 9990 2 49263 97.4531 166.8522 0010124 129.9099 230.3040 15.43874998193904 TeikyoSat 4 1 49396U 21102B 25093.57550603 .00004413 00000-0 29635-3 0 9997 2 49396 97.4190 134.4085 0012718 11.8233 348.3291 15.07234480186453 Z-Sat 1 49399U 21102E 25093.86875720 .00008941 00000-0 49934-3 0 9996 2 49399 97.3886 137.3913 0017480 340.1373 19.9176 15.13615632186882 KOSEN 1 1 49402U 21102H 25093.70911278 .00012193 00000-0 58324-3 0 9990 2 49402 97.3793 140.1666 0014735 316.6697 43.3378 15.19033200187133 HO-113 1 50466U 21131B 25093.88271526 .00001323 00000-0 42790-3 0 9991 2 50466 98.5086 183.5759 0003615 352.5714 7.5420 14.40689948171841 IRIS-A 1 51044U 22002BN 25093.73005675 .00179517 00000-0 14179-2 0 9996 2 51044 97.3305 170.5845 0000967 132.4013 227.7332 15.70838179179304 Foresail-1 1 52766U 22057AL 25093.34743912 .00168922 00000-0 14614-2 0 9990 2 52766 97.6030 238.3756 0005099 196.9058 163.2034 15.68642462159275 SNUGLITE 2 1 52899U 22065F 25093.81150230 .00003084 00000-0 61135-3 0 9991 2 52899 98.1575 236.4834 0006749 329.5433 30.5376 14.62951965146727 IO-117 1 53106U 22080B 25051.21822557 -.00000003 00000-0 00000+0 0 9995 2 53106 70.1434 106.3440 0008542 48.0089 312.1297 6.42557744 61200 UmKA 1 (RS40S) 1 57172U 23091G 25093.89356437 .00012101 00000-0 66300-3 0 9994 2 57172 97.5659 149.6421 0014601 199.0210 161.0478 15.14264811 97383 CubeBel-2 (EU11S) 1 57175U 23091K 25093.88595775 .00016518 00000-0 82350-3 0 9995 2 57175 97.5658 150.4080 0012464 207.0644 152.9941 15.17551066 97436 VERONIKA 1 58261U 23174F 25093.83107941 .00112702 00000-0 17382-2 0 9997 2 58261 97.4175 176.8497 0006796 268.3267 91.7208 15.53735879 78264 KAFASAT 1 58317U 23174BP 25091.62106398 .07821529 24928-5 14590-2 0 9998 2 58317 97.3838 180.0067 0013270 269.4347 90.5427 16.31943736 78302 ENSO 1 58470U 23185J 25093.84422928 .00065023 00000-0 12473-2 0 9996 2 58470 97.3789 167.1916 0006472 314.3186 45.7533 15.47752254 74689 EIRSAT-1 1 58472U 23185L 25093.84081630 .00095056 00000-0 14614-2 0 9997 2 58472 97.3764 168.2196 0005478 308.6855 51.3908 15.53897609 74758 SONATE-2 1 59112U 24043Q 25093.32710427 .00034333 00000-0 10821-2 0 9996 2 59112 97.5031 223.3320 0010921 355.7543 4.3605 15.32761004 60020 MO-122 1 60209U 24125G 25093.09345267 .00030838 00000-0 95992-3 0 9995 2 60209 97.2884 305.5637 0020306 23.5285 336.6882 15.33032994 41608 GRBBeta 1 60237U 24128C 25093.17680185 .00009123 00000-0 69558-3 0 9991 2 60237 61.9932 314.4422 0045562 43.0620 317.4021 15.01811165 40075 Curium One 1 60242U 24128H 25092.98087585 .00014730 00000-0 10577-2 0 9996 2 60242 61.9832 314.3129 0045341 38.6196 321.8123 15.03713429 40063 ROBUSTA-3A 1 60243U 24128J 25093.82882418 .00012882 00000-0 93736-3 0 9994 2 60243 61.9899 311.9678 0043786 36.5080 323.8982 15.03359865 40187 CatSat 1 60246U 24125J 25093.57151183 .00015814 00000-0 55361-3 0 9994 2 60246 97.2670 305.9574 0043083 334.7102 25.2028 15.28679490 39745 HYPERVIEW-1G (RS66S) 1 61772U 24199AP 25093.87800434 .00033684 00000-0 10850-2 0 9991 2 61772 97.3641 322.9851 0016288 74.7848 285.5194 15.31994486 66734 AO-123 1 61781U 24199AY 25093.84147565 .00013652 00000-0 51331-3 0 9990 2 61781 97.3650 322.4429 0017951 76.2872 284.0364 15.27116735 66698 ZIMSAT 2 1 61783U 24199BA 25093.91341572 .00051635 00000-0 15114-2 0 9995 2 61783 97.3632 323.2327 0016897 73.4920 286.8179 15.34928152 69900 POEM 4 (BGS ARPIT) 1 62461U 24253C 25093.30048443 .04554513 11918-4 60834-3 0 9995 2 62461 55.2026 164.0888 0005190 323.3201 158.4302 16.34720740 14850 HADES-R (SO-124) 1 62690U 25009CK 25093.48675427 .00064325 00000-0 27012-2 0 9995 2 62690 97.4124 174.8129 0001774 293.5056 66.5994 15.23199775 11913 HYDRA-T 1 62692U 25009CM 25093.74385989 .00057462 00000-0 24024-2 0 9991 2 62692 97.4125 175.0794 0001866 283.9872 76.1157 15.23384934 11953 JINJUSat 1B 1 63210U 25052A 25093.56834000 .00022500 00000-0 10898-2 0 9998 2 63210 97.4492 348.6016 0004380 166.5584 193.5767 15.18551002 3073 NUSHSAT 1 1 63211U 25052B 25093.56894351 .00024628 00000-0 11922-2 0 9996 2 63211 97.4484 348.5988 0004159 171.3929 188.7377 15.18552347 3079 DRAGON Fram2 1 63427U 25066A 25093.57246557 .00006375 00000-0 13198-3 0 9997 2 63427 90.0039 318.4995 0004436 76.1638 284.0115 15.45619198 383 Fram2Ham 1 90000U 25090A 25091.75964138 .00004870 00000-0 10103-3 0 139 2 90000 90.0002 318.5006 0004092 76.8776 283.3148 15.45677464 122 /EX
